StationID,Date,MaxTemp,MinTemp,Precipitation,Snowfall,SnowDepth
"USW00094274","1999-01-09",42.98,41.00,48.00,,
"USW00094274","1999-01-10",53.96,42.98,28.00,,
"USW00094274","1999-01-11",48.92,39.02,8.00,,
"USW00094274","1999-01-12",46.94,42.98,8.00,,
"USW00094274","1999-01-13",46.94,39.92,61.00,,
"USW00094274","1999-01-14",50.00,42.98,391.00,,
"USW00094274","1999-01-15",46.94,41.00,74.00,,
"USW00094274","1999-01-16",46.04,39.02,51.00,,
"USW00094274","1999-01-17",46.94,39.92,234.00,,
"USW00094274","1999-01-18",46.94,44.06,175.00,,
"USW00094274","1999-01-19",46.04,42.08,122.00,,
"USW00094274","1999-01-20",51.98,42.08,56.00,,
"USW00094274","1999-01-21",44.96,42.08,51.00,,
"USW00094274","1999-01-22",42.08,37.94,119.00,,
"USW00094274","1999-01-23",42.08,33.98,23.00,,
"USW00094274","1999-01-24",42.98,28.04,0.00,,
"USW00094274","1999-01-25",42.08,33.98,0.00,,
"USW00094274","1999-01-26",39.92,37.04,20.00,,
"USW00094274","1999-01-27",44.06,37.04,183.00,,
"USW00094274","1999-01-28",46.94,37.04,264.00,,
"USW00094274","1999-01-29",51.98,35.96,46.00,,
"USW00094274","1999-01-30",41.00,33.98,43.00,,
"USW00094274","1999-01-31",42.98,35.06,84.00,,
"USW00094274","1999-02-01",44.06,37.04,152.00,,
"USW00094274","1999-02-02",48.02,41.00,81.00,,
"USW00094274","1999-02-03",44.06,37.94,94.00,,
"USW00094274","1999-02-04",48.02,39.92,30.00,,
"USW00094274","1999-02-05",44.06,37.94,69.00,,
"USW00094274","1999-02-06",51.08,41.00,216.00,,
"USW00094274","1999-02-07",42.98,37.04,163.00,,
"USW00094274","1999-02-08",44.06,33.98,81.00,,
"USW00094274","1999-02-09",39.02,32.00,13.00,,
"USW00094274","1999-02-10",41.00,33.08,8.00,,
"USW00094274","1999-02-11",46.04,33.98,0.00,,
"USW00094274","1999-02-12",48.02,37.94,0.00,,
"USW00094274","1999-02-13",50.00,35.96,38.00,,
"USW00094274","1999-02-14",44.06,33.08,3.00,,
"USW00094274","1999-02-15",46.04,33.08,18.00,,
"USW00094274","1999-02-16",48.02,42.08,104.00,,
"USW00094274","1999-02-17",46.04,37.04,25.00,,
"USW00094274","1999-02-18",46.04,37.04,150.00,,
"USW00094274","1999-02-19",46.94,39.02,13.00,,
"USW00094274","1999-02-20",53.06,33.98,10.00,,
"USW00094274","1999-02-21",48.02,41.00,23.00,,
"USW00094274","1999-02-22",48.02,41.00,160.00,,
"USW00094274","1999-02-23",48.92,39.92,254.00,,
"USW00094274","1999-02-24",51.98,42.98,246.00,,
"USW00094274","1999-02-25",46.94,37.94,15.00,,
"USW00094274","1999-02-26",46.94,35.96,20.00,,
"USW00094274","1999-02-27",51.98,37.94,284.00,,
"USW00094274","1999-02-28",51.08,39.02,135.00,,
"USW00094274","1999-03-01",44.96,35.96,107.00,,
"USW00094274","1999-03-02",46.04,33.08,53.00,,
"USW00094274","1999-03-03",48.02,35.96,145.00,,
"USW00094274","1999-03-04",46.04,35.96,8.00,,
"USW00094274","1999-03-05",46.04,35.06,0.00,,
"USW00094274","1999-03-06",50.00,30.92,0.00,,
"USW00094274","1999-03-07",48.92,30.02,0.00,,
"USW00094274","1999-03-08",53.06,39.92,66.00,,
"USW00094274","1999-03-09",48.02,35.96,0.00,,
"USW00094274","1999-03-10",50.00,35.96,0.00,,
"USW00094274","1999-03-11",53.06,33.08,0.00,,
"USW00094274","1999-03-12",46.94,42.08,229.00,,
"USW00094274","1999-03-13",55.04,44.96,165.00,,
"USW00094274","1999-03-14",50.00,39.92,99.00,,
"USW00094274","1999-03-15",44.96,37.04,20.00,,
"USW00094274","1999-03-16",50.00,37.04,0.00,,
"USW00094274","1999-03-17",51.98,39.92,10.00,,
"USW00094274","1999-03-18",51.98,41.00,13.00,,
"USW00094274","1999-03-19",57.92,42.08,0.00,,
"USW00094274","1999-03-20",64.04,41.00,0.00,,
"USW00094274","1999-03-21",57.02,46.04,23.00,,
"USW00094274","1999-03-22",60.08,44.96,38.00,,
"USW00094274","1999-03-23",57.92,41.00,15.00,,
"USW00094274","1999-03-24",51.98,42.98,89.00,,
"USW00094274","1999-03-25",51.98,39.02,18.00,,
"USW00094274","1999-03-26",44.06,37.04,64.00,,
"USW00094274","1999-03-27",44.96,35.96,18.00,,
"USW00094274","1999-03-28",46.04,32.00,109.00,,
"USW00094274","1999-03-29",46.94,37.94,74.00,,
"USW00094274","1999-03-30",48.02,37.04,0.00,,
"USW00094274","1999-03-31",50.00,35.96,0.00,,
"USW00094274","1999-04-01",55.04,33.08,0.00,,
"USW00094274","1999-04-02",51.98,33.98,41.00,,
"USW00094274","1999-04-03",48.02,35.06,0.00,,
"USW00094274","1999-04-04",44.06,35.96,15.00,,
"USW00094274","1999-04-05",51.08,33.98,5.00,,
"USW00094274","1999-04-06",57.92,33.98,0.00,,
"USW00094274","1999-04-07",50.00,41.00,23.00,,
"USW00094274","1999-04-08",51.08,37.04,10.00,,
"USW00094274","1999-04-09",48.92,35.96,3.00,,
"USW00094274","1999-04-10",53.06,39.02,46.00,,
"USW00094274","1999-04-11",64.94,39.02,0.00,,
"USW00094274","1999-04-12",55.94,42.08,5.00,,
"USW00094274","1999-04-13",53.06,37.94,0.00,,
"USW00094274","1999-04-14",60.98,37.94,0.00,,
"USW00094274","1999-04-15",69.98,46.04,0.00,,
"USW00094274","1999-04-16",80.06,46.04,0.00,,
"USW00094274","1999-04-17",69.08,48.92,3.00,,
"USW00094274","1999-04-18",59.00,46.94,0.00,,
"USW00094274","1999-04-19",50.00,42.98,46.00,,
"USW00094274","1999-04-20",53.06,42.08,20.00,,
"USW00094274","1999-04-21",51.98,39.02,0.00,,
"USW00094274","1999-04-22",60.08,37.94,0.00,,
"USW00094274","1999-04-23",,,0.00,,
"USW00094274","1999-04-24",71.96,42.08,0.00,,
"USW00094274","1999-04-25",57.92,42.08,30.00,,
"USW00094274","1999-04-26",50.00,37.94,33.00,,
"USW00094274","1999-04-27",51.98,39.02,18.00,,
"USW00094274","1999-04-28",55.94,39.02,0.00,,
"USW00094274","1999-04-29",62.96,39.92,0.00,,
"USW00094274","1999-04-30",64.04,39.92,33.00,,
"USW00094274","1999-05-01",53.96,44.06,56.00,,
"USW00094274","1999-05-02",50.00,42.08,94.00,,
"USW00094274","1999-05-03",53.96,41.00,18.00,,
"USW00094274","1999-05-04",53.06,39.02,5.00,,
"USW00094274","1999-05-05",60.98,41.00,0.00,,
"USW00094274","1999-05-06",60.98,41.00,46.00,,
"USW00094274","1999-05-07",46.94,37.94,48.00,,
"USW00094274","1999-05-08",51.08,37.94,8.00,,
"USW00094274","1999-05-09",53.96,37.04,3.00,,
"USW00094274","1999-05-10",59.00,37.94,0.00,,
"USW00094274","1999-05-11",53.96,42.98,28.00,,
"USW00094274","1999-05-12",53.96,42.08,5.00,,
"USW00094274","1999-05-13",55.94,39.92,0.00,,
"USW00094274","1999-05-14",57.02,42.08,3.00,,
"USW00094274","1999-05-15",57.02,42.98,5.00,,
"USW00094274","1999-05-16",55.94,44.96,8.00,,
"USW00094274","1999-05-17",55.94,46.04,130.00,,
"USW00094274","1999-05-18",59.00,46.04,5.00,,
"USW00094274","1999-05-19",57.92,42.08,0.00,,
"USW00094274","1999-05-20",60.98,42.98,0.00,,
"USW00094274","1999-05-21",62.96,44.96,0.00,,
"USW00094274","1999-05-22",71.06,46.94,0.00,,
"USW00094274","1999-05-23",75.92,53.96,0.00,,
"USW00094274","1999-05-24",75.02,51.98,0.00,,
"USW00094274","1999-05-25",60.08,48.92,0.00,,
"USW00094274","1999-05-26",68.00,44.06,0.00,,
"USW00094274","1999-05-27",71.06,46.94,0.00,,
"USW00094274","1999-05-28",62.96,48.02,0.00,,
"USW00094274","1999-05-29",68.00,44.06,0.00,,
"USW00094274","1999-05-30",69.08,42.98,0.00,,
"USW00094274","1999-05-31",59.00,48.02,0.00,,
"USW00094274","1999-06-01",59.00,46.04,0.00,,
"USW00094274","1999-06-02",60.98,44.96,0.00,,
"USW00094274","1999-06-03",66.02,46.04,0.00,,
"USW00094274","1999-06-04",59.00,48.92,10.00,,
"USW00094274","1999-06-05",57.92,44.96,28.00,,
"USW00094274","1999-06-06",57.02,44.06,5.00,,
"USW00094274","1999-06-07",59.00,44.96,8.00,,
"USW00094274","1999-06-08",60.08,46.04,20.00,,
"USW00094274","1999-06-09",62.96,48.02,0.00,,
"USW00094274","1999-06-10",66.92,44.96,0.00,,
"USW00094274","1999-06-11",77.00,48.02,0.00,,
"USW00094274","1999-06-12",84.92,55.94,0.00,,
"USW00094274","1999-06-13",80.96,57.92,0.00,,
"USW00094274","1999-06-14",80.96,57.02,0.00,,
"USW00094274","1999-06-15",66.02,55.04,0.00,,
"USW00094274","1999-06-16",71.96,53.96,0.00,,
"USW00094274","1999-06-17",69.98,51.08,0.00,,
"USW00094274","1999-06-18",64.94,53.06,3.00,,
"USW00094274","1999-06-19",66.02,51.08,0.00,,
"USW00094274","1999-06-20",60.08,51.98,51.00,,
"USW00094274","1999-06-21",62.06,53.06,0.00,,
"USW00094274","1999-06-22",64.94,53.06,0.00,,
"USW00094274","1999-06-23",69.08,53.06,109.00,,
"USW00094274","1999-06-24",64.04,51.98,218.00,,
"USW00094274","1999-06-25",64.94,51.08,0.00,,
"USW00094274","1999-06-26",62.06,48.92,0.00,,
"USW00094274","1999-06-27",64.04,50.00,0.00,,
"USW00094274","1999-06-28",60.98,50.00,13.00,,
"USW00094274","1999-06-29",66.02,53.06,0.00,,
"USW00094274","1999-06-30",68.00,55.94,0.00,,
"USW00094274","1999-07-01",62.96,48.92,0.00,,
"USW00094274","1999-07-02",62.96,46.94,20.00,,
"USW00094274","1999-07-03",62.06,50.00,28.00,,
"USW00094274","1999-07-04",66.92,51.98,0.00,,
"USW00094274","1999-07-05",73.04,48.92,0.00,,
"USW00094274","1999-07-06",80.96,55.04,0.00,,
"USW00094274","1999-07-07",62.96,51.98,0.00,,
"USW00094274","1999-07-08",71.06,48.02,0.00,,
"USW00094274","1999-07-09",84.92,53.96,0.00,,
"USW00094274","1999-07-10",82.04,57.92,0.00,,
"USW00094274","1999-07-11",78.98,53.06,0.00,,
"USW00094274","1999-07-12",75.02,53.06,0.00,,
"USW00094274","1999-07-13",73.04,53.06,0.00,,
"USW00094274","1999-07-14",64.94,51.98,0.00,,
"USW00094274","1999-07-15",69.98,50.00,0.00,,
"USW00094274","1999-07-16",60.08,53.96,221.00,,
"USW00094274","1999-07-17",59.00,51.98,79.00,,
"USW00094274","1999-07-18",69.98,51.08,0.00,,
"USW00094274","1999-07-19",77.00,53.06,0.00,,
"USW00094274","1999-07-20",75.92,53.96,0.00,,
"USW00094274","1999-07-21",69.98,55.94,0.00,,
"USW00094274","1999-07-22",75.02,55.94,0.00,,
"USW00094274","1999-07-23",71.06,51.98,0.00,,
"USW00094274","1999-07-24",66.92,53.06,0.00,,
"USW00094274","1999-07-25",68.00,51.98,0.00,,
"USW00094274","1999-07-26",75.02,50.00,0.00,,
"USW00094274","1999-07-27",80.06,53.06,0.00,,
"USW00094274","1999-07-28",82.04,53.96,0.00,,
"USW00094274","1999-07-29",69.98,53.06,0.00,,
"USW00094274","1999-07-30",71.96,55.94,5.00,,
"USW00094274","1999-07-31",78.08,53.96,0.00,,
"USW00094274","1999-08-01",71.96,53.96,0.00,,
"USW00094274","1999-08-02",80.96,51.98,0.00,,
"USW00094274","1999-08-03",75.02,57.02,0.00,,
"USW00094274","1999-08-04",77.00,53.96,0.00,,
"USW00094274","1999-08-05",73.94,57.02,8.00,,
"USW00094274","1999-08-06",71.06,57.92,71.00,,
"USW00094274","1999-08-07",69.98,59.00,10.00,,
"USW00094274","1999-08-08",75.92,55.04,3.00,,
"USW00094274","1999-08-09",77.00,55.04,0.00,,
"USW00094274","1999-08-10",78.08,55.94,0.00,,
"USW00094274","1999-08-11",64.04,55.94,0.00,,
"USW00094274","1999-08-12",69.98,55.94,0.00,,
"USW00094274","1999-08-13",68.00,55.04,5.00,,
"USW00094274","1999-08-14",71.06,53.96,0.00,,
"USW00094274","1999-08-15",62.06,53.96,23.00,,
"USW00094274","1999-08-16",77.00,59.00,0.00,,
"USW00094274","1999-08-17",78.08,55.04,0.00,,
"USW00094274","1999-08-18",75.02,55.94,3.00,,
"USW00094274","1999-08-19",73.04,55.94,0.00,,
"USW00094274","1999-08-20",77.00,53.96,0.00,,
"USW00094274","1999-08-21",75.92,57.92,0.00,,
"USW00094274","1999-08-22",77.00,53.06,0.00,,
"USW00094274","1999-08-23",78.98,55.04,0.00,,
"USW00094274","1999-08-24",78.98,53.96,0.00,,
"USW00094274","1999-08-25",73.04,55.94,8.00,,
"USW00094274","1999-08-26",77.00,51.98,0.00,,
"USW00094274","1999-08-27",80.06,57.92,0.00,,
"USW00094274","1999-08-28",71.96,60.08,0.00,,
"USW00094274","1999-08-29",62.06,53.06,5.00,,
"USW00094274","1999-08-30",66.92,51.98,10.00,,
"USW00094274","1999-08-31",62.96,51.08,13.00,,
"USW00094274","1999-09-01",68.00,48.02,3.00,,
"USW00094274","1999-09-02",69.08,46.04,0.00,,
"USW00094274","1999-09-03",73.04,48.92,0.00,,
"USW00094274","1999-09-04",75.02,51.98,0.00,,
"USW00094274","1999-09-05",68.00,55.94,15.00,,
"USW00094274","1999-09-06",69.98,51.98,0.00,,
"USW00094274","1999-09-07",69.08,48.92,0.00,,
"USW00094274","1999-09-08",82.04,53.06,0.00,,
"USW00094274","1999-09-10",68.00,48.02,0.00,,
"USW00094274","1999-09-11",69.98,51.98,0.00,,
"USW00094274","1999-09-12",77.00,57.92,0.00,,
"USW00094274","1999-09-13",84.02,55.94,0.00,,
"USW00094274","1999-09-14",78.08,51.08,0.00,,
"USW00094274","1999-09-15",57.02,53.06,0.00,,
"USW00094274","1999-09-16",62.96,51.98,0.00,,
"USW00094274","1999-09-17",66.92,50.00,0.00,,
"USW00094274","1999-09-18",73.04,48.02,0.00,,
"USW00094274","1999-09-19",80.96,53.06,0.00,,
"USW00094274","1999-09-20",77.00,53.96,0.00,,
"USW00094274","1999-09-21",77.00,53.96,0.00,,
"USW00094274","1999-09-22",80.96,51.98,0.00,,
"USW00094274","1999-09-23",62.06,50.00,20.00,,
"USW00094274","1999-09-24",62.06,48.92,10.00,,
"USW00094274","1999-09-25",66.02,48.02,3.00,,
"USW00094274","1999-09-26",60.98,44.96,0.00,,
"USW00094274","1999-09-27",60.08,42.98,0.00,,
"USW00094274","1999-09-28",71.06,44.06,0.00,,
"USW00094274","1999-09-29",66.02,44.96,0.00,,
"USW00094274","1999-09-30",60.08,42.98,0.00,,
"USW00094274","1999-10-01",60.08,44.96,3.00,,
"USW00094274","1999-10-02",62.96,48.02,0.00,,
"USW00094274","1999-10-03",66.92,42.08,0.00,,
"USW00094274","1999-10-04",68.00,42.98,0.00,,
"USW00094274","1999-10-05",60.08,50.00,8.00,,
"USW00094274","1999-10-06",62.96,51.08,13.00,,
"USW00094274","1999-10-07",57.92,53.06,145.00,,
"USW00094274","1999-10-08",57.02,48.92,94.00,,
"USW00094274","1999-10-09",57.02,46.94,3.00,,
"USW00094274","1999-10-10",53.06,46.04,0.00,,
"USW00094274","1999-10-11",53.06,48.02,28.00,,
"USW00094274","1999-10-12",57.92,46.94,3.00,,
"USW00094274","1999-10-13",64.04,48.92,13.00,,
"USW00094274","1999-10-14",55.94,44.96,0.00,,
"USW00094274","1999-10-15",53.96,41.00,0.00,,
"USW00094274","1999-10-16",57.02,39.92,0.00,,
"USW00094274","1999-10-17",60.08,41.00,0.00,,
"USW00094274","1999-10-18",60.08,46.04,0.00,,
"USW00094274","1999-10-19",64.04,46.04,0.00,,
"USW00094274","1999-10-20",62.96,42.98,3.00,,
"USW00094274","1999-10-21",62.06,42.98,3.00,,
"USW00094274","1999-10-22",64.04,42.98,3.00,,
"USW00094274","1999-10-23",57.02,46.94,10.00,,
"USW00094274","1999-10-24",57.92,42.98,0.00,,
"USW00094274","1999-10-25",55.04,46.94,46.00,,
"USW00094274","1999-10-26",53.06,41.00,0.00,,
"USW00094274","1999-10-27",57.02,42.98,81.00,,
"USW00094274","1999-10-28",57.02,48.02,94.00,,
"USW00094274","1999-10-29",51.08,46.94,48.00,,
"USW00094274","1999-10-30",59.00,46.94,89.00,,
"USW00094274","1999-10-31",55.04,44.06,20.00,,
"USW00094274","1999-11-01",53.06,39.92,0.00,,
"USW00094274","1999-11-02",50.00,35.96,0.00,,
"USW00094274","1999-11-03",53.06,37.94,18.00,,
"USW00094274","1999-11-04",48.92,35.96,0.00,,
"USW00094274","1999-11-05",46.94,35.06,51.00,,
"USW00094274","1999-11-06",59.00,44.96,66.00,,
"USW00094274","1999-11-07",55.94,48.02,0.00,,
"USW00094274","1999-11-08",53.96,48.02,114.00,,
"USW00094274","1999-11-09",53.96,46.94,206.00,,
"USW00094274","1999-11-10",51.98,46.04,122.00,,
"USW00094274","1999-11-11",60.98,46.94,262.00,,
"USW00094274","1999-11-12",53.06,46.04,356.00,,
"USW00094274","1999-11-13",51.08,44.96,97.00,,
"USW00094274","1999-11-14",60.08,48.92,3.00,,
"USW00094274","1999-11-15",53.96,48.92,15.00,,
"USW00094274","1999-11-16",51.98,46.94,86.00,,
"USW00094274","1999-11-17",51.08,39.92,74.00,,
"USW00094274","1999-11-18",48.92,35.96,3.00,,
"USW00094274","1999-11-19",51.08,44.06,86.00,,
"USW00094274","1999-11-20",48.02,39.02,277.00,,
"USW00094274","1999-11-21",50.00,37.04,23.00,,
"USW00094274","1999-11-22",46.04,41.00,71.00,,
"USW00094274","1999-11-23",48.02,42.98,10.00,,
"USW00094274","1999-11-24",51.08,44.06,211.00,,
"USW00094274","1999-11-25",48.02,41.00,325.00,,
"USW00094274","1999-11-26",48.02,39.02,38.00,,
"USW00094274","1999-11-27",46.94,37.04,76.00,,
"USW00094274","1999-11-28",53.06,39.02,0.00,,
"USW00094274","1999-11-30",53.06,44.96,5.00,,0.00
"USW00094274","1999-12-01",48.02,42.98,89.00,,
"USW00094274","1999-12-03",46.04,33.98,0.00,,
"USW00094274","1999-12-04",46.94,33.08,38.00,,
"USW00094274","1999-12-05",48.02,42.98,20.00,,
"USW00094274","1999-12-06",46.94,42.08,43.00,,
"USW00094274","1999-12-07",44.06,35.06,0.00,,
"USW00094274","1999-12-08",46.04,39.92,81.00,,
"USW00094274","1999-12-09",46.94,41.00,28.00,,
"USW00094274","1999-12-10",44.96,41.00,5.00,,
"USW00094274","1999-12-11",48.92,44.96,41.00,,
"USW00094274","1999-12-12",48.92,37.04,206.00,,
"USW00094274","1999-12-13",42.98,35.96,76.00,,
"USW00094274","1999-12-14",48.02,39.02,142.00,,
"USW00094274","1999-12-15",51.98,48.02,467.00,,
"USW00094274","1999-12-16",51.98,39.92,33.00,,
"USW00094274","1999-12-17",53.06,39.02,180.00,,
"USW00094274","1999-12-18",48.92,42.08,0.00,,
"USW00094274","1999-12-19",46.04,41.00,0.00,,
"USW00094274","1999-12-20",48.02,42.08,0.00,,
"USW00094274","1999-12-21",46.04,41.00,0.00,,
"USW00094274","1999-12-22",41.00,37.94,0.00,,
"USW00094274","1999-12-23",39.92,37.04,0.00,,
"USW00094274","1999-12-24",42.08,35.96,0.00,,
"USW00094274","1999-12-25",41.00,32.00,0.00,,
"USW00094274","1999-12-26",39.02,35.96,0.00,,
"USW00094274","1999-12-27",42.08,35.96,0.00,,
"USW00094274","1999-12-28",44.96,33.08,0.00,,
"USW00094274","1999-12-29",39.92,35.06,3.00,,
"USW00094274","1999-12-30",42.98,39.02,8.00,,
"USW00094274","1999-12-31",44.06,37.94,30.00,,
"USW00094274","2000-01-01",42.98,35.96,89.00,,
"USW00094274","2000-01-02",44.06,35.96,0.00,,
"USW00094274","2000-01-03",48.02,35.96,132.00,,
"USW00094274","2000-01-04",48.02,41.00,61.00,,
"USW00094274","2000-01-05",42.08,35.96,0.00,,
"USW00094274","2000-01-06",41.00,33.08,5.00,,
"USW00094274","2000-01-07",46.04,41.00,48.00,,
"USW00094274","2000-01-08",46.04,37.04,64.00,,
"USW00094274","2000-01-09",44.06,33.98,84.00,,
"USW00094274","2000-01-10",37.04,33.98,91.00,,
"USW00094274","2000-01-11",37.04,32.00,46.00,,
"USW00094274","2000-01-12",39.02,32.00,104.00,,
"USW00094274","2000-01-13",39.92,37.04,36.00,,
"USW00094274","2000-01-14",44.06,37.04,117.00,,
"USW00094274","2000-01-15",42.08,35.96,8.00,,
"USW00094274","2000-01-16",50.00,35.96,48.00,,0.00
"USW00094274","2000-01-17",48.92,35.06,0.00,,
"USW00094274","2000-01-18",42.08,30.92,3.00,,
"USW00094274","2000-01-19",42.98,33.08,46.00,,
"USW00094274","2000-01-20",44.06,35.96,33.00,,
"USW00094274","2000-01-21",48.92,39.02,18.00,,
"USW00094274","2000-01-22",46.04,37.04,15.00,,
"USW00094274","2000-01-23",46.04,33.98,0.00,,
"USW00094274","2000-01-24",46.94,37.04,8.00,,
"USW00094274","2000-01-25",48.02,39.02,46.00,,
"USW00094274","2000-01-26",46.04,35.96,0.00,,
"USW00094274","2000-01-27",44.96,33.08,0.00,,
"USW00094274","2000-01-28",46.94,33.08,0.00,,
"USW00094274","2000-01-29",50.00,28.04,3.00,,
"USW00094274","2000-01-30",44.06,35.96,13.00,,
"USW00094274","2000-01-31",50.00,37.94,175.00,,
"USW00094274","2000-02-01",48.92,42.08,363.00,,
"USW00094274","2000-02-02",46.94,39.92,0.00,,
"USW00094274","2000-02-03",57.92,42.08,0.00,,
"USW00094274","2000-02-04",55.04,39.02,0.00,,
"USW00094274","2000-02-05",53.06,35.96,20.00,,
"USW00094274","2000-02-06",55.04,42.98,0.00,,
"USW00094274","2000-02-07",50.00,42.08,104.00,,
"USW00094274","2000-02-08",50.00,41.00,157.00,,
"USW00094274","2000-02-09",50.00,39.02,3.00,,
"USW00094274","2000-02-10",46.04,35.06,0.00,,
"USW00094274","2000-02-11",48.92,39.02,0.00,,
"USW00094274","2000-02-12",42.98,37.04,5.00,,
"USW00094274","2000-02-13",46.94,33.08,5.00,,
"USW00094274","2000-02-14",42.08,37.04,163.00,,
"USW00094274","2000-02-15",48.02,37.94,0.00,,
"USW00094274","2000-02-16",46.94,37.94,0.00,,
"USW00094274","2000-02-17",48.02,33.08,0.00,,
"USW00094274","2000-02-18",48.02,32.00,0.00,,
"USW00094274","2000-02-19",51.98,30.92,3.00,,
"USW00094274","2000-02-20",55.04,33.08,5.00,,
"USW00094274","2000-02-21",48.92,42.98,58.00,,
"USW00094274","2000-02-22",50.00,41.00,165.00,,
"USW00094274","2000-02-23",50.00,37.04,8.00,,
"USW00094274","2000-02-24",48.02,33.98,0.00,,
"USW00094274","2000-02-25",44.06,32.00,74.00,,
"USW00094274","2000-02-26",48.02,39.02,104.00,,
"USW00094274","2000-02-27",51.08,41.00,30.00,,
"USW00094274","2000-02-28",46.94,42.08,71.00,,
"USW00094274","2000-02-29",48.02,42.08,173.00,,
"USW00094274","2000-03-01",46.94,39.02,3.00,,
"USW00094274","2000-03-02",51.98,42.08,114.00,,
"USW00094274","2000-03-03",46.94,44.06,89.00,,
"USW00094274","2000-03-04",44.06,35.06,132.00,,
"USW00094274","2000-03-05",48.02,33.98,0.00,,
"USW00094274","2000-03-06",48.02,32.00,3.00,,
"USW00094274","2000-03-07",51.08,33.98,0.00,,
"USW00094274","2000-03-08",46.94,42.08,15.00,,
"USW00094274","2000-03-09",51.98,41.00,36.00,,
"USW00094274","2000-03-10",53.06,35.96,15.00,,
"USW00094274","2000-03-11",48.92,39.02,5.00,,
"USW00094274","2000-03-12",46.94,35.96,0.00,,
"USW00094274","2000-03-13",55.94,41.00,122.00,,
"USW00094274","2000-03-14",51.08,37.94,15.00,,
"USW00094274","2000-03-15",50.00,32.00,15.00,,
"USW00094274","2000-03-16",51.98,39.92,74.00,,
"USW00094274","2000-03-17",46.04,39.92,36.00,,
"USW00094274","2000-03-18",48.92,39.02,119.00,,
"USW00094274","2000-03-19",48.02,35.96,13.00,,
"USW00094274","2000-03-20",50.00,33.08,0.00,,
"USW00094274","2000-03-21",55.04,44.06,3.00,,
"USW00094274","2000-03-22",51.98,39.92,79.00,,
"USW00094274","2000-03-23",53.06,37.94,0.00,,
"USW00094274","2000-03-24",55.04,35.06,0.00,,
"USW00094274","2000-03-25",51.98,39.02,0.00,,
"USW00094274","2000-03-26",59.00,35.96,0.00,,
"USW00094274","2000-03-27",51.98,39.92,36.00,,
"USW00094274","2000-03-28",50.00,39.92,0.00,,
"USW00094274","2000-03-29",48.92,35.96,0.00,,
"USW00094274","2000-03-30",57.02,37.04,0.00,,
"USW00094274","2000-03-31",60.98,39.02,0.00,,
"USW00094274","2000-04-02",62.06,44.96,0.00,,0.00
"USW00094274","2000-04-03",64.94,42.08,0.00,,
"USW00094274","2000-04-04",53.96,39.92,0.00,,0.00
"USW00094274","2000-04-05",50.00,39.02,18.00,,
"USW00094274","2000-04-06",53.96,39.02,23.00,,
"USW00094274","2000-04-07",59.00,35.06,0.00,,
"USW00094274","2000-04-08",62.06,44.96,0.00,,
"USW00094274","2000-04-09",53.96,46.04,0.00,,
"USW00094274","2000-04-10",62.06,42.08,0.00,,
"USW00094274","2000-04-11",66.02,44.06,0.00,,
"USW00094274","2000-04-12",68.00,46.04,0.00,,
"USW00094274","2000-04-13",60.08,48.92,104.00,,
"USW00094274","2000-04-14",51.98,46.94,74.00,,
"USW00094274","2000-04-15",55.94,46.04,15.00,,
"USW00094274","2000-04-16",53.06,44.06,0.00,,
"USW00094274","2000-04-17",60.98,42.08,3.00,,
"USW00094274","2000-04-18",62.96,41.00,0.00,,
"USW00094274","2000-04-19",59.00,46.04,0.00,,
"USW00094274","2000-04-20",64.94,46.04,0.00,,
"USW00094274","2000-04-21",62.06,44.96,46.00,,
"USW00094274","2000-04-22",53.96,44.06,10.00,,
"USW00094274","2000-04-23",51.08,39.02,20.00,,
"USW00094274","2000-04-24",55.04,35.06,0.00,,
"USW00094274","2000-04-25",53.06,42.98,97.00,,
"USW00094274","2000-04-26",60.98,39.02,0.00,,
"USW00094274","2000-04-27",55.04,44.96,15.00,,
"USW00094274","2000-04-28",51.98,42.08,10.00,,
"USW00094274","2000-04-29",55.94,37.94,0.00,,
"USW00094274","2000-04-30",66.02,44.96,0.00,,
"USW00094274","2000-05-01",60.98,46.94,51.00,,
"USW00094274","2000-05-02",64.04,48.92,13.00,,
"USW00094274","2000-05-03",55.94,44.96,64.00,,
"USW00094274","2000-05-04",55.04,44.06,53.00,,
"USW00094274","2000-05-05",55.04,44.06,15.00,,
"USW00094274","2000-05-06",59.00,42.08,0.00,,
"USW00094274","2000-05-07",60.98,44.06,0.00,,
"USW00094274","2000-05-08",55.94,44.96,46.00,,
"USW00094274","2000-05-09",51.98,44.06,191.00,,
"USW00094274","2000-05-10",53.96,44.06,13.00,,
"USW00094274","2000-05-11",57.92,42.98,0.00,,
"USW00094274","2000-05-12",60.08,42.08,0.00,,
"USW00094274","2000-05-13",62.96,48.02,0.00,,
"USW00094274","2000-05-14",71.06,51.98,0.00,,
"USW00094274","2000-05-16",69.08,48.92,0.00,,
"USW00094274","2000-05-17",60.98,46.94,0.00,,
"USW00094274","2000-05-18",62.06,46.94,107.00,,
"USW00094274","2000-05-19",64.04,51.08,8.00,,
"USW00094274","2000-05-20",62.06,50.00,0.00,,
"USW00094274","2000-05-21",69.98,51.08,48.00,,
"USW00094274","2000-05-22",62.96,48.02,0.00,,
"USW00094274","2000-05-23",64.04,48.02,0.00,,
"USW00094274","2000-05-24",66.92,44.06,0.00,,
"USW00094274","2000-05-25",62.96,42.98,5.00,,
"USW00094274","2000-05-26",62.06,46.04,30.00,,
"USW00094274","2000-05-27",62.96,51.08,23.00,,
"USW00094274","2000-05-28",60.98,48.92,10.00,,
"USW00094274","2000-05-29",60.98,48.92,13.00,,
"USW00094274","2000-05-30",53.96,46.94,3.00,,